Regional Weather Roundup
Issued by NWS

Home | Current Version | Previous Version | Graphics & Text | Print | Product List | Glossary On
Versions: 1 2 3 4 5 6 7 8 9 10 11 12 13 14 15 16 17 18 19 20 21 22 23 24 25 26 27 28 29 30 31 32 33 34 35 36 37 38 39 40 41 42 43 44 45 46 47 48 49 50
000
ASUS43 KFSD 011810
RWRSD

WEATHER ROUNDUP FOR SOUTH DAKOTA
NATIONAL WEATHER SERVICE SIOUX FALLS SD
100 PM CDT SAT AUG 01 2015

NOTE: "FAIR" INDICATES FEW OR NO CLOUDS BELOW 12,000 FEET WITH NO
SIGNIFICANT WEATHER AND/OR OBSTRUCTIONS TO VISIBILITY.


SDZ001>005-009-010-012>017-011900-
NORTHWEST AND NORTH CENTRAL SOUTH DAKOTA

CITY           SKY/WX    TMP DP  RH WIND       PRES   REMARKS
BUFFALO          N/A     92  34  13 N17G23    29.91F
FAITH            N/A     94  39  14 N10       29.93F
MOBRIDGE       SUNNY     90  64  42 W8G16     29.83F
$$

SDZ012>016-024>037-041>051-057-063-072>074-011900-
SOUTHWEST AND SOUTH CENTRAL SOUTH DAKOTA

CITY           SKY/WX    TMP DP  RH WIND       PRES   REMARKS
RAPID CTY ARPT SUNNY     85  58  39 S3        30.02F
PIERRE         SUNNY     88  59  37 SW16G25   29.88F
CUSTER         SUNNY     82  55  39 NE10      30.17S
ELLSWORTH AFB  SUNNY     87  51  29 VRB1      30.01F
PHILIP         SUNNY     85  63  47 SW20      29.97S
PINE RIDGE     SUNNY     83  61  47 SE20G29   30.05F
WINNER         FAIR      77  58  51 S22G29    29.95F
$$

SDZ004>011-016>023-039-040-011900-
NORTHEAST SOUTH DAKOTA

CITY           SKY/WX    TMP DP  RH WIND       PRES   REMARKS
ABERDEEN       MOSUNNY   84  69  60 S16G24    29.87F
WATERTOWN      TSTM      81  65  58 S12       29.93F
BROOKINGS      MOSUNNY   82  63  51 SW15G22   29.97R
SISSETON         N/A     78  65  63 S13       29.88F
$$

SDZ017-020-022-023-036>040-048>070-011900-
SOUTHEAST SOUTH DAKOTA

CITY           SKY/WX    TMP DP  RH WIND       PRES   REMARKS
SIOUX FALLS    CLOUDY    79  63  57 SW13G22   29.99F
HURON          SUNNY     87  59  38 SW16G25   29.90F
CHAMBERLAIN    MOSUNNY   78  61  56 S18G30    29.95S
MITCHELL       PTSUNNY   80  62  54 SW14G21   29.95R
YANKTON        CLOUDY    77  61  57 SW12      29.99F
$$

ABBREVIATIONS USED IN REMARKS
   TC - TEMPERATURE IN CELSIUS
  WCI - WIND CHILL INDEX
   HX - HEAT INDEX
  VSB - VISIBILITY



USA.gov is the U.S. government's official web portal to all federal, state and local government web resources and services.